Time,TemperatureF,DewpointF,PressureIn,WindDirection,WindDirectionDegrees,WindSpeedMPH,WindSpeedGustMPH,Humidity,HourlyPrecipIn,Conditions,Clouds,dailyrainin,SoftwareType,DateUTC
2013-01-13 00:00:00,68.4,65.7,30.09,South,169,0.0,1.0,91,0.00,,,0.00,Wunderground v.1.15,2013-01-13 05:00:00,
2013-01-13 00:03:00,68.4,65.7,30.09,South,169,0.0,0.0,91,0.00,,,0.00,Wunderground v.1.15,2013-01-13 05:03:00,
2013-01-13 00:09:00,68.3,65.6,30.09,West,262,0.0,0.0,91,0.00,,,0.00,Wunderground v.1.15,2013-01-13 05:09:00,
2013-01-13 00:12:00,68.3,65.3,30.09,NNW,331,0.0,0.0,90,0.00,,,0.00,Wunderground v.1.15,2013-01-13 05:12:00,
2013-01-13 00:18:00,68.4,65.0,30.09,NNE,33,0.0,0.0,89,0.00,,,0.00,Wunderground v.1.15,2013-01-13 05:18:00,
2013-01-13 00:24:00,68.8,65.4,30.09,South,178,1.0,1.0,89,0.00,,,0.00,Wunderground v.1.15,2013-01-13 05:24:00,
2013-01-13 00:30:00,69.3,65.3,30.09,NE,41,0.0,0.0,87,0.00,,,0.00,Wunderground v.1.15,2013-01-13 05:30:00,
2013-01-13 00:36:00,69.8,65.4,30.09,NE,56,0.0,2.0,86,0.00,,,0.00,Wunderground v.1.15,2013-01-13 05:36:00,
2013-01-13 00:42:00,70.1,65.7,30.09,NNW,342,0.0,1.0,86,0.00,,,0.00,Wunderground v.1.15,2013-01-13 05:42:00,
2013-01-13 00:48:00,70.2,65.5,30.09,SSE,154,1.0,1.0,85,0.00,,,0.00,Wunderground v.1.15,2013-01-13 05:48:00,
2013-01-13 00:53:00,70.3,65.6,30.09,South,178,2.0,2.0,85,0.00,,,0.00,Wunderground v.1.15,2013-01-13 05:53:00,
2013-01-13 00:59:00,70.5,65.4,30.09,West,263,0.0,2.0,84,0.00,,,0.00,Wunderground v.1.15,2013-01-13 05:59:00,
2013-01-13 01:04:00,70.5,65.4,30.09,SSE,158,1.0,1.0,84,0.00,,,0.00,Wunderground v.1.15,2013-01-13 06:04:00,
2013-01-13 01:10:00,70.5,65.4,30.09,North,354,0.0,1.0,84,0.00,,,0.00,Wunderground v.1.15,2013-01-13 06:10:00,
2013-01-13 01:16:00,70.3,65.2,30.09,West,266,0.0,2.0,84,0.00,,,0.00,Wunderground v.1.15,2013-01-13 06:16:00,
2013-01-13 01:22:00,70.1,65.4,30.09,East,89,0.0,1.0,85,0.00,,,0.00,Wunderground v.1.15,2013-01-13 06:22:00,
2013-01-13 01:28:00,69.9,65.2,30.09,ESE,115,0.0,1.0,85,0.00,,,0.00,Wunderground v.1.15,2013-01-13 06:28:00,
2013-01-13 01:34:00,69.9,65.2,30.09,SE,139,0.0,1.0,85,0.00,,,0.00,Wunderground v.1.15,2013-01-13 06:34:00,
2013-01-13 01:40:00,69.9,65.2,30.09,SSE,158,2.0,2.0,85,0.00,,,0.00,Wunderground v.1.15,2013-01-13 06:40:00,
2013-01-13 01:46:00,69.9,65.2,30.09,SE,127,1.0,2.0,85,0.00,,,0.00,Wunderground v.1.15,2013-01-13 06:46:00,
2013-01-13 01:52:00,69.9,65.2,30.09,SSW,195,0.0,0.0,85,0.00,,,0.00,Wunderground v.1.15,2013-01-13 06:52:00,
2013-01-13 01:58:00,69.9,65.2,30.09,NNW,342,0.0,2.0,85,0.00,,,0.00,Wunderground v.1.15,2013-01-13 06:58:00,
2013-01-13 02:03:00,69.9,65.2,30.09,North,359,0.0,1.0,85,0.00,,,0.00,Wunderground v.1.15,2013-01-13 07:03:00,
2013-01-13 02:08:00,69.9,65.2,30.09,SSE,156,0.0,1.0,85,0.00,,,0.00,Wunderground v.1.15,2013-01-13 07:08:00,
2013-01-13 02:13:00,70.0,65.3,30.09,South,187,1.0,3.0,85,0.00,,,0.00,Wunderground v.1.15,2013-01-13 07:13:00,
2013-01-13 02:18:00,70.0,65.3,30.09,NNE,33,0.0,4.0,85,0.00,,,0.00,Wunderground v.1.15,2013-01-13 07:18:00,
2013-01-13 02:23:00,70.1,65.4,30.09,NNE,16,0.0,3.0,85,0.00,,,0.00,Wunderground v.1.15,2013-01-13 07:23:00,
2013-01-13 02:28:00,70.1,65.4,30.09,SE,124,3.0,5.0,85,0.00,,,0.00,Wunderground v.1.15,2013-01-13 07:28:00,
2013-01-13 02:33:00,70.1,65.4,30.09,ESE,117,1.0,4.0,85,0.00,,,0.00,Wunderground v.1.15,2013-01-13 07:33:00,
2013-01-13 02:38:00,70.0,65.3,30.09,NNE,26,0.0,4.0,85,0.00,,,0.00,Wunderground v.1.15,2013-01-13 07:38:00,
2013-01-13 02:43:00,70.0,65.3,30.09,SE,125,0.0,1.0,85,0.00,,,0.00,Wunderground v.1.15,2013-01-13 07:43:00,
2013-01-13 02:48:00,69.9,65.5,30.09,NE,41,0.0,2.0,86,0.00,,,0.00,Wunderground v.1.15,2013-01-13 07:48:00,
2013-01-13 02:53:00,69.9,65.5,30.09,NE,44,0.0,1.0,86,0.00,,,0.00,Wunderground v.1.15,2013-01-13 07:53:00,
2013-01-13 02:58:00,69.9,65.5,30.09,South,184,0.0,1.0,86,0.00,,,0.00,Wunderground v.1.15,2013-01-13 07:58:00,
2013-01-13 03:03:00,69.9,65.5,30.09,North,7,0.0,2.0,86,0.00,,,0.00,Wunderground v.1.15,2013-01-13 08:03:00,
2013-01-13 03:08:00,69.9,65.5,30.09,SE,138,0.0,2.0,86,0.00,,,0.00,Wunderground v.1.15,2013-01-13 08:08:00,
2013-01-13 03:13:00,69.8,65.4,30.09,NNW,347,0.0,2.0,86,0.00,,,0.00,Wunderground v.1.15,2013-01-13 08:13:00,
2013-01-13 03:18:00,69.7,65.3,30.09,North,349,0.0,3.0,86,0.00,,,0.00,Wunderground v.1.15,2013-01-13 08:18:00,
2013-01-13 03:23:00,69.7,65.3,30.08,ESE,119,1.0,4.0,86,0.00,,,0.00,Wunderground v.1.15,2013-01-13 08:23:00,
2013-01-13 03:28:00,69.6,65.2,30.08,SSE,157,0.0,4.0,86,0.00,,,0.00,Wunderground v.1.15,2013-01-13 08:28:00,
2013-01-13 03:33:00,69.5,65.1,30.08,NNE,15,1.0,2.0,86,0.00,,,0.00,Wunderground v.1.15,2013-01-13 08:33:00,
2013-01-13 03:38:00,69.4,65.4,30.07,SSE,165,0.0,3.0,87,0.00,,,0.00,Wunderground v.1.15,2013-01-13 08:38:00,
2013-01-13 03:43:00,69.4,65.4,30.07,SE,135,1.0,7.0,87,0.00,,,0.00,Wunderground v.1.15,2013-01-13 08:43:00,
2013-01-13 03:48:00,69.3,65.3,30.07,East,99,0.0,7.0,87,0.00,,,0.00,Wunderground v.1.15,2013-01-13 08:48:00,
2013-01-13 03:53:00,69.3,65.3,30.07,SE,131,0.0,2.0,87,0.00,,,0.00,Wunderground v.1.15,2013-01-13 08:53:00,
2013-01-13 03:58:00,69.3,65.3,30.07,NNE,18,0.0,4.0,87,0.00,,,0.00,Wunderground v.1.15,2013-01-13 08:58:00,
2013-01-13 04:03:00,69.3,65.3,30.07,SSE,168,0.0,0.0,87,0.00,,,0.00,Wunderground v.1.15,2013-01-13 09:03:00,
2013-01-13 04:08:00,69.2,65.2,30.07,NE,46,0.0,1.0,87,0.00,,,0.00,Wunderground v.1.15,2013-01-13 09:08:00,
2013-01-13 04:13:00,69.1,65.1,30.07,ENE,58,0.0,1.0,87,0.00,,,0.00,Wunderground v.1.15,2013-01-13 09:13:00,
2013-01-13 04:18:00,69.0,65.0,30.07,WNW,282,0.0,3.0,87,0.00,,,0.00,Wunderground v.1.15,2013-01-13 09:18:00,
2013-01-13 04:23:00,68.9,64.9,30.07,SSE,158,0.0,2.0,87,0.00,,,0.00,Wunderground v.1.15,2013-01-13 09:23:00,
2013-01-13 04:28:00,68.8,64.8,30.07,NNE,32,0.0,2.0,87,0.00,,,0.00,Wunderground v.1.15,2013-01-13 09:28:00,
2013-01-13 04:33:00,68.7,65.0,30.07,NW,310,0.0,2.0,88,0.00,,,0.00,Wunderground v.1.15,2013-01-13 09:33:00,
2013-01-13 04:38:00,68.4,64.7,30.07,North,359,0.0,2.0,88,0.00,,,0.00,Wunderground v.1.15,2013-01-13 09:38:00,
2013-01-13 04:43:00,68.1,64.4,30.07,ESE,110,1.0,1.0,88,0.00,,,0.00,Wunderground v.1.15,2013-01-13 09:43:00,
2013-01-13 04:48:00,67.9,64.5,30.07,ESE,103,0.0,2.0,89,0.00,,,0.00,Wunderground v.1.15,2013-01-13 09:48:00,
2013-01-13 04:53:00,67.6,64.6,30.07,NE,49,0.0,1.0,90,0.00,,,0.00,Wunderground v.1.15,2013-01-13 09:53:00,
2013-01-13 04:58:00,67.4,64.4,30.07,North,359,1.0,2.0,90,0.00,,,0.00,Wunderground v.1.15,2013-01-13 09:58:00,
2013-01-13 05:03:00,67.3,64.3,30.07,NE,37,0.0,2.0,90,0.00,,,0.00,Wunderground v.1.15,2013-01-13 10:03:00,
2013-01-13 05:08:00,67.1,64.4,30.07,East,93,1.0,2.0,91,0.00,,,0.00,Wunderground v.1.15,2013-01-13 10:08:00,
2013-01-13 05:13:00,67.0,64.3,30.07,ESE,118,0.0,2.0,91,0.00,,,0.00,Wunderground v.1.15,2013-01-13 10:13:00,
2013-01-13 05:18:00,66.8,64.1,30.06,ENE,65,0.0,2.0,91,0.00,,,0.00,Wunderground v.1.15,2013-01-13 10:18:00,
2013-01-13 05:23:00,66.7,64.3,30.06,NNE,18,0.0,4.0,92,0.00,,,0.00,Wunderground v.1.15,2013-01-13 10:23:00,
2013-01-13 05:28:00,66.7,64.3,30.06,East,99,2.0,4.0,92,0.00,,,0.00,Wunderground v.1.15,2013-01-13 10:28:00,
2013-01-13 05:33:00,66.6,64.2,30.06,ESE,108,1.0,2.0,92,0.00,,,0.00,Wunderground v.1.15,2013-01-13 10:33:00,
2013-01-13 05:38:00,66.6,64.2,30.06,SSE,158,0.0,2.0,92,0.00,,,0.00,Wunderground v.1.15,2013-01-13 10:38:00,
2013-01-13 05:43:00,66.4,64.0,30.06,SE,133,0.0,1.0,92,0.00,,,0.00,Wunderground v.1.15,2013-01-13 10:43:00,
2013-01-13 05:48:00,66.2,64.1,30.06,SE,126,0.0,2.0,93,0.00,,,0.00,Wunderground v.1.15,2013-01-13 10:48:00,
2013-01-13 05:53:00,66.2,63.8,30.06,North,4,0.0,2.0,92,0.00,,,0.00,Wunderground v.1.15,2013-01-13 10:53:00,
2013-01-13 05:58:00,66.1,64.0,30.07,East,91,1.0,3.0,93,0.00,,,0.00,Wunderground v.1.15,2013-01-13 10:58:00,
2013-01-13 06:03:00,66.1,64.0,30.06,East,98,0.0,1.0,93,0.00,,,0.00,Wunderground v.1.15,2013-01-13 11:03:00,
2013-01-13 06:08:00,66.1,64.0,30.06,NNE,19,0.0,1.0,93,0.00,,,0.00,Wunderground v.1.15,2013-01-13 11:08:00,
2013-01-13 06:13:00,66.0,63.9,30.07,NNW,347,0.0,1.0,93,0.00,,,0.00,Wunderground v.1.15,2013-01-13 11:13:00,
2013-01-13 06:18:00,66.0,63.9,30.07,NNE,31,0.0,1.0,93,0.00,,,0.00,Wunderground v.1.15,2013-01-13 11:18:00,
2013-01-13 06:23:00,65.8,64.0,30.07,ESE,119,0.0,1.0,94,0.00,,,0.00,Wunderground v.1.15,2013-01-13 11:23:00,
2013-01-13 06:28:00,65.7,63.9,30.07,ESE,117,0.0,1.0,94,0.00,,,0.00,Wunderground v.1.15,2013-01-13 11:28:00,
2013-01-13 06:33:00,65.6,63.8,30.07,SE,127,0.0,2.0,94,0.00,,,0.00,Wunderground v.1.15,2013-01-13 11:33:00,
2013-01-13 06:38:00,65.6,63.8,30.07,East,101,0.0,2.0,94,0.00,,,0.00,Wunderground v.1.15,2013-01-13 11:38:00,
2013-01-13 06:43:00,65.5,63.7,30.07,East,98,0.0,1.0,94,0.00,,,0.00,Wunderground v.1.15,2013-01-13 11:43:00,
2013-01-13 06:48:00,65.4,63.6,30.07,SE,140,1.0,2.0,94,0.00,,,0.00,Wunderground v.1.15,2013-01-13 11:48:00,
2013-01-13 06:53:00,65.3,63.5,30.07,SE,137,0.0,1.0,94,0.00,,,0.00,Wunderground v.1.15,2013-01-13 11:53:00,
2013-01-13 06:58:00,65.2,63.4,30.07,SE,143,0.0,1.0,94,0.00,,,0.00,Wunderground v.1.15,2013-01-13 11:58:00,
2013-01-13 07:03:00,65.1,63.3,30.07,South,181,0.0,2.0,94,0.00,,,0.00,Wunderground v.1.15,2013-01-13 12:03:00,
2013-01-13 07:08:00,65.2,63.7,30.07,East,82,0.0,2.0,95,0.00,,,0.00,Wunderground v.1.15,2013-01-13 12:08:00,
2013-01-13 07:13:00,65.1,63.6,30.07,East,86,1.0,1.0,95,0.00,,,0.00,Wunderground v.1.15,2013-01-13 12:13:00,
2013-01-13 07:18:00,65.1,63.6,30.07,WSW,251,0.0,2.0,95,0.00,,,0.00,Wunderground v.1.15,2013-01-13 12:18:00,
2013-01-13 07:23:00,65.2,63.7,30.07,SE,126,0.0,1.0,95,0.00,,,0.00,Wunderground v.1.15,2013-01-13 12:23:00,
2013-01-13 07:28:00,65.2,63.7,30.07,East,94,0.0,2.0,95,0.00,,,0.00,Wunderground v.1.15,2013-01-13 12:28:00,
2013-01-13 07:34:00,65.2,63.7,30.07,East,84,0.0,1.0,95,0.00,,,0.00,Wunderground v.1.15,2013-01-13 12:34:00,
2013-01-13 07:39:00,65.2,63.7,30.07,NE,39,0.0,1.0,95,0.00,,,0.00,Wunderground v.1.15,2013-01-13 12:39:00,
2013-01-13 07:44:00,65.2,63.7,30.07,SE,145,0.0,0.0,95,0.00,,,0.00,Wunderground v.1.15,2013-01-13 12:44:00,
2013-01-13 07:49:00,65.4,63.9,30.08,NE,43,0.0,4.0,95,0.00,,,0.00,Wunderground v.1.15,2013-01-13 12:49:00,
2013-01-13 07:54:00,65.6,64.1,30.08,ENE,62,0.0,1.0,95,0.00,,,0.00,Wunderground v.1.15,2013-01-13 12:54:00,
2013-01-13 07:59:00,65.8,64.0,30.08,NNW,327,0.0,1.0,94,0.00,,,0.00,Wunderground v.1.15,2013-01-13 12:59:00,
2013-01-13 08:04:00,66.1,64.3,30.09,NNE,27,0.0,2.0,94,0.00,,,0.00,Wunderground v.1.15,2013-01-13 13:04:00,
2013-01-13 08:09:00,66.3,64.5,30.09,ENE,71,0.0,2.0,94,0.00,,,0.00,Wunderground v.1.15,2013-01-13 13:09:00,
2013-01-13 08:14:00,66.8,64.7,30.10,NE,37,0.0,1.0,93,0.00,,,0.00,Wunderground v.1.15,2013-01-13 13:14:00,
2013-01-13 08:19:00,67.6,65.2,30.10,NE,49,0.0,1.0,92,0.00,,,0.00,Wunderground v.1.15,2013-01-13 13:19:00,
2013-01-13 08:24:00,68.1,65.4,30.11,NE,49,0.0,0.0,91,0.00,,,0.00,Wunderground v.1.15,2013-01-13 13:24:00,
2013-01-13 08:29:00,68.7,65.6,30.12,North,354,0.0,0.0,90,0.00,,,0.00,Wunderground v.1.15,2013-01-13 13:29:00,
2013-01-13 08:34:00,69.3,65.9,30.12,ENE,57,0.0,2.0,89,0.00,,,0.00,Wunderground v.1.15,2013-01-13 13:34:00,
2013-01-13 08:39:00,70.0,66.0,30.13,ENE,68,0.0,2.0,87,0.00,,,0.00,Wunderground v.1.15,2013-01-13 13:39:00,
2013-01-13 08:44:00,70.7,66.6,30.13,ENE,68,0.0,0.0,87,0.00,,,0.00,Wunderground v.1.15,2013-01-13 13:44:00,
2013-01-13 08:49:00,71.2,66.1,30.13,SSE,150,0.0,2.0,84,0.00,,,0.00,Wunderground v.1.15,2013-01-13 13:49:00,
2013-01-13 08:54:00,71.2,66.5,30.13,SSE,147,0.0,3.0,85,0.00,,,0.00,Wunderground v.1.15,2013-01-13 13:54:00,
2013-01-13 08:59:00,71.5,66.4,30.14,ENE,58,0.0,4.0,84,0.00,,,0.00,Wunderground v.1.15,2013-01-13 13:59:00,
2013-01-13 09:04:00,71.8,66.7,30.14,NW,309,1.0,4.0,84,0.00,,,0.00,Wunderground v.1.15,2013-01-13 14:04:00,
2013-01-13 09:09:00,72.0,66.9,30.14,SE,136,0.0,4.0,84,0.00,,,0.00,Wunderground v.1.15,2013-01-13 14:09:00,
2013-01-13 09:14:00,72.4,67.3,30.15,NE,46,1.0,4.0,84,0.00,,,0.00,Wunderground v.1.15,2013-01-13 14:14:00,
2013-01-13 09:19:00,72.9,67.1,30.15,ENE,57,1.0,4.0,82,0.00,,,0.00,Wunderground v.1.15,2013-01-13 14:19:00,
2013-01-13 09:24:00,73.1,67.3,30.15,NNW,344,0.0,1.0,82,0.00,,,0.00,Wunderground v.1.15,2013-01-13 14:24:00,
2013-01-13 09:29:00,73.6,67.4,30.16,SE,136,1.0,4.0,81,0.00,,,0.00,Wunderground v.1.15,2013-01-13 14:29:00,
2013-01-13 09:34:00,73.9,67.7,30.16,NE,34,0.0,2.0,81,0.00,,,0.00,Wunderground v.1.15,2013-01-13 14:34:00,
2013-01-13 09:39:00,74.3,68.1,30.16,NNE,33,2.0,4.0,81,0.00,,,0.00,Wunderground v.1.15,2013-01-13 14:39:00,
2013-01-13 09:44:00,74.6,68.0,30.16,East,90,2.0,5.0,80,0.00,,,0.00,Wunderground v.1.15,2013-01-13 14:44:00,
2013-01-13 09:49:00,75.0,67.7,30.17,SE,134,2.0,5.0,78,0.00,,,0.00,Wunderground v.1.15,2013-01-13 14:49:00,
2013-01-13 09:54:00,75.4,68.4,30.17,NNW,345,0.0,2.0,79,0.00,,,0.00,Wunderground v.1.15,2013-01-13 14:54:00,
2013-01-13 09:59:00,75.7,68.4,30.17,NE,51,0.0,3.0,78,0.00,,,0.00,Wunderground v.1.15,2013-01-13 14:59:00,
2013-01-13 10:04:00,75.7,68.0,30.17,East,97,1.0,4.0,77,0.00,,,0.00,Wunderground v.1.15,2013-01-13 15:04:00,
2013-01-13 10:09:00,76.0,68.3,30.17,WSW,247,5.0,5.0,77,0.00,,,0.00,Wunderground v.1.15,2013-01-13 15:09:00,
2013-01-13 10:14:00,76.4,68.3,30.17,SE,139,0.0,4.0,76,0.00,,,0.00,Wunderground v.1.15,2013-01-13 15:14:00,
2013-01-13 10:19:00,76.7,68.6,30.17,SSE,148,0.0,4.0,76,0.00,,,0.00,Wunderground v.1.15,2013-01-13 15:19:00,
2013-01-13 10:24:00,77.2,68.7,30.17,NW,323,0.0,2.0,75,0.00,,,0.00,Wunderground v.1.15,2013-01-13 15:24:00,
2013-01-13 10:29:00,77.7,68.7,30.17,NE,45,2.0,4.0,74,0.00,,,0.00,Wunderground v.1.15,2013-01-13 15:29:00,
2013-01-13 10:34:00,77.5,68.6,30.17,NE,36,1.0,5.0,74,0.00,,,0.00,Wunderground v.1.15,2013-01-13 15:34:00,
2013-01-13 10:39:00,77.4,68.5,30.17,ENE,60,2.0,5.0,74,0.00,,,0.00,Wunderground v.1.15,2013-01-13 15:39:00,
2013-01-13 10:44:00,77.4,68.1,30.16,WNW,282,0.0,5.0,73,0.00,,,0.00,Wunderground v.1.15,2013-01-13 15:44:00,
2013-01-13 10:49:00,77.7,69.5,30.16,NE,41,0.0,5.0,76,0.00,,,0.00,Wunderground v.1.15,2013-01-13 15:49:00,
2013-01-13 10:54:00,78.3,69.3,30.16,NE,35,0.0,3.0,74,0.00,,,0.00,Wunderground v.1.15,2013-01-13 15:54:00,
2013-01-13 10:59:00,78.4,68.2,30.16,SSE,162,0.0,4.0,71,0.00,,,0.00,Wunderground v.1.15,2013-01-13 15:59:00,
2013-01-13 11:04:00,78.8,69.4,30.15,SSW,197,1.0,3.0,73,0.00,,,0.00,Wunderground v.1.15,2013-01-13 16:04:00,
2013-01-13 11:09:00,79.1,68.1,30.15,SE,139,0.0,4.0,69,0.00,,,0.00,Wunderground v.1.15,2013-01-13 16:09:00,
2013-01-13 11:14:00,79.2,68.1,30.15,SSE,158,2.0,4.0,69,0.00,,,0.00,Wunderground v.1.15,2013-01-13 16:14:00,
2013-01-13 11:19:00,78.9,67.4,30.14,NW,316,0.0,5.0,68,0.00,,,0.00,Wunderground v.1.15,2013-01-13 16:19:00,
2013-01-13 11:24:00,79.3,68.2,30.14,North,349,1.0,2.0,69,0.00,,,0.00,Wunderground v.1.15,2013-01-13 16:24:00,
2013-01-13 11:29:00,79.7,68.6,30.14,NNE,23,1.0,6.0,69,0.00,,,0.00,Wunderground v.1.15,2013-01-13 16:29:00,
2013-01-13 11:34:00,79.7,67.8,30.13,South,169,2.0,6.0,67,0.00,,,0.00,Wunderground v.1.15,2013-01-13 16:34:00,
2013-01-13 11:39:00,80.0,66.7,30.13,NW,307,1.0,6.0,64,0.00,,,0.00,Wunderground v.1.15,2013-01-13 16:39:00,
2013-01-13 11:44:00,80.1,67.3,30.13,SSE,158,0.0,6.0,65,0.00,,,0.00,Wunderground v.1.15,2013-01-13 16:44:00,
2013-01-13 11:49:00,80.3,67.5,30.12,South,169,1.0,6.0,65,0.00,,,0.00,Wunderground v.1.15,2013-01-13 16:49:00,
2013-01-13 11:54:00,80.9,67.6,30.12,East,101,3.0,5.0,64,0.00,,,0.00,Wunderground v.1.15,2013-01-13 16:54:00,
2013-01-13 11:59:00,81.2,67.9,30.12,SE,139,2.0,5.0,64,0.00,,,0.00,Wunderground v.1.15,2013-01-13 16:59:00,
2013-01-13 12:04:00,81.2,66.9,30.12,SSW,212,2.0,4.0,62,0.00,,,0.00,Wunderground v.1.15,2013-01-13 17:04:00,
2013-01-13 12:09:00,81.0,67.2,30.12,SE,140,1.0,4.0,63,0.00,,,0.00,Wunderground v.1.15,2013-01-13 17:09:00,
2013-01-13 12:14:00,81.2,66.9,30.12,SE,143,1.0,3.0,62,0.00,,,0.00,Wunderground v.1.15,2013-01-13 17:14:00,
2013-01-13 12:19:00,81.6,68.2,30.12,NE,53,0.0,3.0,64,0.00,,,0.00,Wunderground v.1.15,2013-01-13 17:19:00,
2013-01-13 12:24:00,81.6,66.4,30.11,West,261,1.0,2.0,60,0.00,,,0.00,Wunderground v.1.15,2013-01-13 17:24:00,
2013-01-13 12:29:00,81.1,66.4,30.11,NNE,29,1.0,3.0,61,0.00,,,0.00,Wunderground v.1.15,2013-01-13 17:29:00,
2013-01-13 12:34:00,80.7,66.0,30.11,West,270,0.0,2.0,61,0.00,,,0.00,Wunderground v.1.15,2013-01-13 17:34:00,
2013-01-13 12:39:00,81.0,67.2,30.10,SE,143,0.0,2.0,63,0.00,,,0.00,Wunderground v.1.15,2013-01-13 17:39:00,
2013-01-13 12:44:00,81.3,66.6,30.10,ESE,110,1.0,4.0,61,0.00,,,0.00,Wunderground v.1.15,2013-01-13 17:44:00,
2013-01-13 12:49:00,80.8,66.6,30.10,ENE,78,2.0,4.0,62,0.00,,,0.00,Wunderground v.1.15,2013-01-13 17:49:00,
2013-01-13 12:54:00,80.3,67.0,30.10,North,3,2.0,2.0,64,0.00,,,0.00,Wunderground v.1.15,2013-01-13 17:54:00,
2013-01-13 12:59:00,80.3,66.1,30.09,West,276,1.0,4.0,62,0.00,,,0.00,Wunderground v.1.15,2013-01-13 17:59:00,
2013-01-13 13:04:00,80.4,66.2,30.09,South,188,5.0,5.0,62,0.00,,,0.00,Wunderground v.1.15,2013-01-13 18:04:00,
2013-01-13 13:09:00,80.2,66.9,30.09,North,354,5.0,6.0,64,0.00,,,0.00,Wunderground v.1.15,2013-01-13 18:09:00,
2013-01-13 13:14:00,80.4,67.1,30.08,WSW,245,3.0,3.0,64,0.00,,,0.00,Wunderground v.1.15,2013-01-13 18:14:00,
2013-01-13 13:19:00,80.6,65.9,30.08,SE,141,0.0,4.0,61,0.00,,,0.00,Wunderground v.1.15,2013-01-13 18:19:00,
2013-01-13 13:25:00,80.5,66.7,30.08,NE,51,3.0,5.0,63,0.00,,,0.00,Wunderground v.1.15,2013-01-13 18:25:00,
2013-01-13 13:30:00,80.5,66.7,30.08,ESE,106,0.0,1.0,63,0.00,,,0.00,Wunderground v.1.15,2013-01-13 18:30:00,
2013-01-13 13:35:00,80.6,66.8,30.08,NNE,28,0.0,3.0,63,0.00,,,0.00,Wunderground v.1.15,2013-01-13 18:35:00,
2013-01-13 13:40:00,81.0,67.2,30.08,SSE,160,1.0,1.0,63,0.00,,,0.00,Wunderground v.1.15,2013-01-13 18:40:00,
2013-01-13 13:45:00,81.3,67.5,30.07,NE,41,1.0,3.0,63,0.00,,,0.00,Wunderground v.1.15,2013-01-13 18:45:00,
2013-01-13 13:50:00,81.3,67.0,30.08,SSE,161,0.0,0.0,62,0.00,,,0.00,Wunderground v.1.15,2013-01-13 18:50:00,
2013-01-13 13:55:00,81.2,66.0,30.08,SSW,198,0.0,5.0,60,0.00,,,0.00,Wunderground v.1.15,2013-01-13 18:55:00,
2013-01-13 14:00:00,80.9,66.2,30.08,South,174,0.0,1.0,61,0.00,,,0.00,Wunderground v.1.15,2013-01-13 19:00:00,
2013-01-13 14:05:00,80.8,65.6,30.08,SE,131,1.0,2.0,60,0.00,,,0.00,Wunderground v.1.15,2013-01-13 19:05:00,
2013-01-13 14:10:00,80.8,65.6,30.08,South,176,1.0,1.0,60,0.00,,,0.00,Wunderground v.1.15,2013-01-13 19:10:00,
2013-01-13 14:15:00,81.0,66.8,30.08,NE,43,0.0,4.0,62,0.00,,,0.00,Wunderground v.1.15,2013-01-13 19:15:00,
2013-01-13 14:20:00,81.4,66.2,30.08,ESE,112,1.0,1.0,60,0.00,,,0.00,Wunderground v.1.15,2013-01-13 19:20:00,
2013-01-13 14:25:00,81.7,66.9,30.07,East,92,0.0,2.0,61,0.00,,,0.00,Wunderground v.1.15,2013-01-13 19:25:00,
2013-01-13 14:30:00,82.0,65.8,30.08,East,83,1.0,1.0,58,0.00,,,0.00,Wunderground v.1.15,2013-01-13 19:30:00,
2013-01-13 14:35:00,82.0,65.3,30.08,East,83,0.0,2.0,57,0.00,,,0.00,Wunderground v.1.15,2013-01-13 19:35:00,
2013-01-13 14:40:00,82.2,66.0,30.07,WSW,237,0.0,1.0,58,0.00,,,0.00,Wunderground v.1.15,2013-01-13 19:40:00,
2013-01-13 14:45:00,82.1,65.4,30.08,East,86,1.0,2.0,57,0.00,,,0.00,Wunderground v.1.15,2013-01-13 19:45:00,
2013-01-13 14:50:00,82.0,64.8,30.08,SSE,167,0.0,1.0,56,0.00,,,0.00,Wunderground v.1.15,2013-01-13 19:50:00,
2013-01-13 14:55:00,81.9,65.2,30.08,South,189,2.0,3.0,57,0.00,,,0.00,Wunderground v.1.15,2013-01-13 19:55:00,
2013-01-13 15:00:00,81.7,65.0,30.08,WNW,288,0.0,0.0,57,0.00,,,0.00,Wunderground v.1.15,2013-01-13 20:00:00,
2013-01-13 15:05:00,81.6,65.4,30.08,SSE,158,0.0,1.0,58,0.00,,,0.00,Wunderground v.1.15,2013-01-13 20:05:00,
2013-01-13 15:10:00,81.7,65.5,30.08,SSE,148,0.0,0.0,58,0.00,,,0.00,Wunderground v.1.15,2013-01-13 20:10:00,
2013-01-13 15:15:00,81.5,64.8,30.08,East,99,0.0,2.0,57,0.00,,,0.00,Wunderground v.1.15,2013-01-13 20:15:00,
2013-01-13 15:20:00,81.1,64.9,30.08,SSE,148,0.0,0.0,58,0.00,,,0.00,Wunderground v.1.15,2013-01-13 20:20:00,
2013-01-13 15:25:00,81.0,64.8,30.08,East,84,0.0,2.0,58,0.00,,,0.00,Wunderground v.1.15,2013-01-13 20:25:00,
2013-01-13 15:30:00,80.9,65.2,30.08,SW,217,0.0,0.0,59,0.00,,,0.00,Wunderground v.1.15,2013-01-13 20:30:00,
2013-01-13 15:35:00,80.9,64.7,30.08,ENE,59,1.0,2.0,58,0.00,,,0.00,Wunderground v.1.15,2013-01-13 20:35:00,
2013-01-13 15:40:00,80.8,64.6,30.08,SSW,204,2.0,2.0,58,0.00,,,0.00,Wunderground v.1.15,2013-01-13 20:40:00,
2013-01-13 15:45:00,80.5,64.9,30.08,SE,139,1.0,4.0,59,0.00,,,0.00,Wunderground v.1.15,2013-01-13 20:45:00,
2013-01-13 15:50:00,80.4,65.7,30.08,WNW,302,1.0,2.0,61,0.00,,,0.00,Wunderground v.1.15,2013-01-13 20:50:00,
2013-01-13 15:55:00,80.0,65.3,30.08,North,2,3.0,3.0,61,0.00,,,0.00,Wunderground v.1.15,2013-01-13 20:55:00,
2013-01-13 16:00:00,79.7,65.5,30.08,SE,127,0.0,1.0,62,0.00,,,0.00,Wunderground v.1.15,2013-01-13 21:00:00,
2013-01-13 16:05:00,79.6,65.4,30.08,South,172,2.0,2.0,62,0.00,,,0.00,Wunderground v.1.15,2013-01-13 21:05:00,
2013-01-13 16:10:00,79.3,65.1,30.09,SE,146,0.0,0.0,62,0.00,,,0.00,Wunderground v.1.15,2013-01-13 21:10:00,
2013-01-13 16:15:00,79.0,65.3,30.09,West,281,0.0,2.0,63,0.00,,,0.00,Wunderground v.1.15,2013-01-13 21:15:00,
2013-01-13 16:20:00,78.8,65.1,30.09,South,169,0.0,1.0,63,0.00,,,0.00,Wunderground v.1.15,2013-01-13 21:20:00,
2013-01-13 16:25:00,78.6,64.9,30.09,SSW,210,0.0,1.0,63,0.00,,,0.00,Wunderground v.1.15,2013-01-13 21:25:00,
2013-01-13 16:30:00,78.4,64.8,30.09,SW,234,0.0,1.0,63,0.00,,,0.00,Wunderground v.1.15,2013-01-13 21:30:00,
2013-01-13 16:35:00,78.2,65.0,30.09,SW,233,0.0,1.0,64,0.00,,,0.00,Wunderground v.1.15,2013-01-13 21:35:00,
2013-01-13 16:40:00,78.2,65.0,30.09,SW,231,1.0,1.0,64,0.00,,,0.00,Wunderground v.1.15,2013-01-13 21:40:00,
2013-01-13 16:45:00,77.9,64.7,30.09,SSE,159,0.0,2.0,64,0.00,,,0.00,Wunderground v.1.15,2013-01-13 21:45:00,
2013-01-13 16:50:00,77.7,64.5,30.09,SSE,160,0.0,0.0,64,0.00,,,0.00,Wunderground v.1.15,2013-01-13 21:50:00,
2013-01-13 16:55:00,77.4,64.3,30.09,SE,124,0.0,2.0,64,0.00,,,0.00,Wunderground v.1.15,2013-01-13 21:55:00,
2013-01-13 17:00:00,77.1,64.4,30.09,East,96,0.0,2.0,65,0.00,,,0.00,Wunderground v.1.15,2013-01-13 22:00:00,
2013-01-13 17:05:00,76.9,64.7,30.09,SE,146,0.0,2.0,66,0.00,,,0.00,Wunderground v.1.15,2013-01-13 22:05:00,
2013-01-13 17:10:00,76.8,64.6,30.09,SE,144,0.0,0.0,66,0.00,,,0.00,Wunderground v.1.15,2013-01-13 22:10:00,
2013-01-13 17:15:00,76.6,64.8,30.09,North,357,0.0,2.0,67,0.00,,,0.00,Wunderground v.1.15,2013-01-13 22:15:00,
2013-01-13 17:20:00,76.4,64.6,30.09,WNW,303,1.0,1.0,67,0.00,,,0.00,Wunderground v.1.15,2013-01-13 22:20:00,
2013-01-13 17:25:00,76.1,64.3,30.09,SSE,148,0.0,1.0,67,0.00,,,0.00,Wunderground v.1.15,2013-01-13 22:25:00,
2013-01-13 17:30:00,75.9,64.6,30.09,SSE,148,0.0,0.0,68,0.00,,,0.00,Wunderground v.1.15,2013-01-13 22:30:00,
2013-01-13 17:35:00,75.5,64.6,30.09,SE,137,0.0,0.0,69,0.00,,,0.00,Wunderground v.1.15,2013-01-13 22:35:00,
2013-01-13 17:40:00,75.1,64.2,30.09,South,172,0.0,0.0,69,0.00,,,0.00,Wunderground v.1.15,2013-01-13 22:40:00,
2013-01-13 17:45:00,74.9,64.5,30.09,South,187,0.0,2.0,70,0.00,,,0.00,Wunderground v.1.15,2013-01-13 22:45:00,
2013-01-13 17:50:00,74.5,64.5,30.09,South,178,0.0,0.0,71,0.00,,,0.00,Wunderground v.1.15,2013-01-13 22:50:00,
2013-01-13 17:55:00,74.2,64.2,30.09,SE,136,1.0,1.0,71,0.00,,,0.00,Wunderground v.1.15,2013-01-13 22:55:00,
2013-01-13 18:00:00,73.8,64.2,30.09,South,169,0.0,0.0,72,0.00,,,0.00,Wunderground v.1.15,2013-01-13 23:00:00,
2013-01-13 18:05:00,73.5,64.3,30.09,South,174,0.0,1.0,73,0.00,,,0.00,Wunderground v.1.15,2013-01-13 23:05:00,
2013-01-13 18:10:00,73.3,64.1,30.09,South,187,0.0,1.0,73,0.00,,,0.00,Wunderground v.1.15,2013-01-13 23:10:00,
2013-01-13 18:15:00,73.1,64.3,30.09,East,95,0.0,1.0,74,0.00,,,0.00,Wunderground v.1.15,2013-01-13 23:15:00,
2013-01-13 18:20:00,72.8,64.0,30.09,SSE,152,0.0,0.0,74,0.00,,,0.00,Wunderground v.1.15,2013-01-13 23:20:00,
2013-01-13 18:25:00,72.5,64.1,30.09,SSE,153,0.0,0.0,75,0.00,,,0.00,Wunderground v.1.15,2013-01-13 23:25:00,
2013-01-13 18:30:00,72.2,64.2,30.09,SSE,151,0.0,0.0,76,0.00,,,0.00,Wunderground v.1.15,2013-01-13 23:30:00,
2013-01-13 18:35:00,71.9,64.3,30.09,SSE,147,0.0,0.0,77,0.00,,,0.00,Wunderground v.1.15,2013-01-13 23:35:00,
2013-01-13 18:40:00,71.7,64.5,30.09,SW,214,0.0,0.0,78,0.00,,,0.00,Wunderground v.1.15,2013-01-13 23:40:00,
2013-01-13 18:45:00,71.6,64.4,30.09,SSE,163,0.0,1.0,78,0.00,,,0.00,Wunderground v.1.15,2013-01-13 23:45:00,
2013-01-13 18:50:00,71.5,64.6,30.09,SSE,163,0.0,0.0,79,0.00,,,0.00,Wunderground v.1.15,2013-01-13 23:50:00,
2013-01-13 18:55:00,71.2,64.7,30.09,SSE,164,0.0,0.0,80,0.00,,,0.00,Wunderground v.1.15,2013-01-13 23:55:00,
2013-01-13 19:00:00,70.9,64.4,30.09,SSE,163,0.0,0.0,80,0.00,,,0.00,Wunderground v.1.15,2013-01-14 00:00:00,
2013-01-13 19:05:00,70.6,64.5,30.09,SSE,164,0.0,0.0,81,0.00,,,0.00,Wunderground v.1.15,2013-01-14 00:05:00,
2013-01-13 19:10:00,70.5,64.7,30.09,SSE,164,0.0,0.0,82,0.00,,,0.00,Wunderground v.1.15,2013-01-14 00:10:00,
2013-01-13 19:15:00,70.1,64.3,30.09,SSE,163,0.0,0.0,82,0.00,,,0.00,Wunderground v.1.15,2013-01-14 00:15:00,
2013-01-13 19:20:00,69.6,64.2,30.09,SSE,163,0.0,0.0,83,0.00,,,0.00,Wunderground v.1.15,2013-01-14 00:20:00,
2013-01-13 19:25:00,69.2,64.2,30.09,SSE,163,0.0,0.0,84,0.00,,,0.00,Wunderground v.1.15,2013-01-14 00:25:00,
2013-01-13 19:30:00,68.8,64.1,30.09,SSE,164,0.0,0.0,85,0.00,,,0.00,Wunderground v.1.15,2013-01-14 00:30:00,
2013-01-13 19:35:00,68.5,64.1,30.09,SSE,164,0.0,0.0,86,0.00,,,0.00,Wunderground v.1.15,2013-01-14 00:35:00,
2013-01-13 19:40:00,68.3,63.9,30.09,SSE,163,0.0,0.0,86,0.00,,,0.00,Wunderground v.1.15,2013-01-14 00:40:00,
2013-01-13 19:45:00,68.3,63.9,30.09,SSE,164,0.0,0.0,86,0.00,,,0.00,Wunderground v.1.15,2013-01-14 00:45:00,
2013-01-13 19:50:00,68.1,64.1,30.09,SSE,163,0.0,0.0,87,0.00,,,0.00,Wunderground v.1.15,2013-01-14 00:50:00,
2013-01-13 19:55:00,67.7,63.7,30.09,SSE,164,0.0,0.0,87,0.00,,,0.00,Wunderground v.1.15,2013-01-14 00:55:00,
2013-01-13 20:00:00,67.8,64.1,30.09,SSE,163,0.0,0.0,88,0.00,,,0.00,Wunderground v.1.15,2013-01-14 01:00:00,
2013-01-13 20:05:00,67.7,63.7,30.09,SSE,163,0.0,0.0,87,0.00,,,0.00,Wunderground v.1.15,2013-01-14 01:05:00,
2013-01-13 20:10:00,67.4,63.7,30.09,SSE,164,0.0,0.0,88,0.00,,,0.00,Wunderground v.1.15,2013-01-14 01:10:00,
2013-01-13 20:15:00,67.2,63.8,30.09,SSE,163,0.0,0.0,89,0.00,,,0.00,Wunderground v.1.15,2013-01-14 01:15:00,
2013-01-13 20:21:00,67.0,64.0,30.09,SSE,163,0.0,0.0,90,0.00,,,0.00,Wunderground v.1.15,2013-01-14 01:21:00,
2013-01-13 20:25:00,66.9,63.9,30.09,SSE,164,0.0,0.0,90,0.00,,,0.00,Wunderground v.1.15,2013-01-14 01:25:00,
2013-01-13 20:31:00,66.8,63.8,30.09,SSE,163,0.0,0.0,90,0.00,,,0.00,Wunderground v.1.15,2013-01-14 01:31:00,
2013-01-13 20:35:00,66.7,64.0,30.09,SSE,164,0.0,0.0,91,0.00,,,0.00,Wunderground v.1.15,2013-01-14 01:35:00,
2013-01-13 20:40:00,66.7,64.0,30.09,SSE,163,0.0,0.0,91,0.00,,,0.00,Wunderground v.1.15,2013-01-14 01:40:00,
2013-01-13 20:45:00,66.5,63.8,30.09,SSE,163,0.0,0.0,91,0.00,,,0.00,Wunderground v.1.15,2013-01-14 01:45:00,
2013-01-13 20:50:00,66.1,63.4,30.09,SSE,164,0.0,0.0,91,0.00,,,0.00,Wunderground v.1.15,2013-01-14 01:50:00,
2013-01-13 20:55:00,65.7,63.3,30.09,SSE,163,0.0,0.0,92,0.00,,,0.00,Wunderground v.1.15,2013-01-14 01:55:00,
2013-01-13 21:00:00,65.4,63.0,30.09,SSE,164,0.0,0.0,92,0.00,,,0.00,Wunderground v.1.15,2013-01-14 02:00:00,
2013-01-13 21:05:00,65.2,63.1,30.09,SSE,163,0.0,0.0,93,0.00,,,0.00,Wunderground v.1.15,2013-01-14 02:05:00,
2013-01-13 21:10:00,65.1,63.0,30.09,SSE,163,0.0,0.0,93,0.00,,,0.00,Wunderground v.1.15,2013-01-14 02:10:00,
2013-01-13 21:15:00,64.9,63.1,30.09,SSE,163,0.0,0.0,94,0.00,,,0.00,Wunderground v.1.15,2013-01-14 02:15:00,
2013-01-13 21:20:00,64.8,63.0,30.09,SSE,163,0.0,0.0,94,0.00,,,0.00,Wunderground v.1.15,2013-01-14 02:20:00,
2013-01-13 21:25:00,64.6,62.8,30.09,SSE,163,0.0,0.0,94,0.00,,,0.00,Wunderground v.1.15,2013-01-14 02:25:00,
2013-01-13 21:30:00,64.5,63.0,30.09,SSE,164,0.0,0.0,95,0.00,,,0.00,Wunderground v.1.15,2013-01-14 02:30:00,
2013-01-13 21:35:00,64.5,63.0,30.09,SSE,164,0.0,0.0,95,0.00,,,0.00,Wunderground v.1.15,2013-01-14 02:35:00,
2013-01-13 21:41:00,64.4,62.9,30.10,SSE,163,0.0,0.0,95,0.00,,,0.00,Wunderground v.1.15,2013-01-14 02:41:00,
2013-01-13 21:46:00,64.2,62.7,30.10,SSE,163,0.0,0.0,95,0.00,,,0.00,Wunderground v.1.15,2013-01-14 02:46:00,
2013-01-13 21:51:00,64.0,62.5,30.10,SSE,163,0.0,0.0,95,0.00,,,0.00,Wunderground v.1.15,2013-01-14 02:51:00,
2013-01-13 21:56:00,64.1,62.9,30.10,SSE,164,0.0,0.0,96,0.00,,,0.00,Wunderground v.1.15,2013-01-14 02:56:00,
2013-01-13 22:01:00,64.1,62.6,30.10,SSE,163,0.0,0.0,95,0.00,,,0.00,Wunderground v.1.15,2013-01-14 03:01:00,
2013-01-13 22:06:00,64.0,62.5,30.11,SSE,164,0.0,0.0,95,0.00,,,0.00,Wunderground v.1.15,2013-01-14 03:06:00,
2013-01-13 22:11:00,64.2,63.0,30.11,SSE,163,0.0,0.0,96,0.00,,,0.00,Wunderground v.1.15,2013-01-14 03:11:00,
2013-01-13 22:16:00,64.2,63.0,30.11,SSE,163,0.0,0.0,96,0.00,,,0.00,Wunderground v.1.15,2013-01-14 03:16:00,
2013-01-13 22:21:00,64.4,63.2,30.11,SSE,163,0.0,0.0,96,0.00,,,0.00,Wunderground v.1.15,2013-01-14 03:21:00,
2013-01-13 22:26:00,64.5,63.3,30.12,SSE,163,0.0,0.0,96,0.00,,,0.00,Wunderground v.1.15,2013-01-14 03:26:00,
2013-01-13 22:30:00,64.6,63.4,30.12,SSE,163,0.0,0.0,96,0.00,,,0.00,Wunderground v.1.15,2013-01-14 03:30:00,
2013-01-13 22:35:00,64.5,63.0,30.12,SSE,163,0.0,0.0,95,0.00,,,0.00,Wunderground v.1.15,2013-01-14 03:35:00,
2013-01-13 22:41:00,64.2,62.7,30.12,SSE,164,0.0,0.0,95,0.00,,,0.00,Wunderground v.1.15,2013-01-14 03:41:00,
2013-01-13 22:46:00,64.1,62.6,30.12,SSE,163,0.0,0.0,95,0.00,,,0.00,Wunderground v.1.15,2013-01-14 03:46:00,
2013-01-13 22:51:00,63.9,62.7,30.12,SSE,164,0.0,0.0,96,0.00,,,0.00,Wunderground v.1.15,2013-01-14 03:51:00,
2013-01-13 22:56:00,63.9,62.7,30.12,SSE,163,0.0,0.0,96,0.00,,,0.00,Wunderground v.1.15,2013-01-14 03:56:00,
2013-01-13 23:01:00,63.7,62.5,30.12,SSE,163,0.0,0.0,96,0.00,,,0.00,Wunderground v.1.15,2013-01-14 04:01:00,
2013-01-13 23:06:00,63.4,62.2,30.12,SSE,164,0.0,0.0,96,0.00,,,0.00,Wunderground v.1.15,2013-01-14 04:06:00,
2013-01-13 23:11:00,63.3,62.1,30.12,SSE,163,0.0,0.0,96,0.00,,,0.00,Wunderground v.1.15,2013-01-14 04:11:00,
2013-01-13 23:16:00,63.1,61.9,30.13,SSE,163,0.0,0.0,96,0.00,,,0.00,Wunderground v.1.15,2013-01-14 04:16:00,
2013-01-13 23:21:00,62.9,61.7,30.12,SSE,163,0.0,0.0,96,0.00,,,0.00,Wunderground v.1.15,2013-01-14 04:21:00,
2013-01-13 23:26:00,62.9,62.0,30.12,SSE,163,0.0,0.0,97,0.00,,,0.00,Wunderground v.1.15,2013-01-14 04:26:00,
2013-01-13 23:31:00,63.1,62.2,30.13,SSE,163,0.0,0.0,97,0.00,,,0.00,Wunderground v.1.15,2013-01-14 04:31:00,
2013-01-13 23:36:00,63.0,62.1,30.13,SSE,163,0.0,0.0,97,0.00,,,0.00,Wunderground v.1.15,2013-01-14 04:36:00,
2013-01-13 23:41:00,62.8,61.9,30.13,SSE,164,0.0,0.0,97,0.00,,,0.00,Wunderground v.1.15,2013-01-14 04:41:00,
2013-01-13 23:46:00,62.7,61.8,30.13,SSE,163,0.0,0.0,97,0.00,,,0.00,Wunderground v.1.15,2013-01-14 04:46:00,
2013-01-13 23:51:00,62.6,61.7,30.12,SSE,163,0.0,0.0,97,0.00,,,0.00,Wunderground v.1.15,2013-01-14 04:51:00,
2013-01-13 23:56:00,62.6,61.7,30.13,SSE,164,0.0,0.0,97,0.00,,,0.00,Wunderground v.1.15,2013-01-14 04:56:00,